Change the Weather History Date:

Friday, December 14, 2012

  Actual Average Record
Temperature  
Mean Temperature 22 °F -  
Max Temperature 26 °F 20 °F 35 °F (2004)
Min Temperature 17 °F 11 °F -11 °F (2001)
Degree Days  
Heating Degree Days 44    
Moisture  
Dew Point 19 °F    
Average Humidity 91    
Maximum Humidity 93    
Minimum Humidity 86    
Precipitation  
Precipitation 0.00 in - - ()
Sea Level Pressure  
Sea Level Pressure 29.23 in    
Wind  
Wind Speed 2 mph (NNW)    
Max Wind Speed 6 mph    
Max Gust Speed -    
Visibility 6 miles    
Events      
Averages and records for this station are not official NWS values.
T = Trace of Precipitation, MM = Missing Value Source: NWS Daily Summary

Daily Weather History Graph

Daily Weather History Graph

Search for Another Location

Airport or City:

Trip Planner

Search our weather history database for the weather conditions in past years. The results will help you decide how hot, cold, wet, or windy it might be!

Date:

Astronomy

Dec. 14, 2012 Rise Set
Actual Time 10:08 AM AKST 3:41 PM AKST
Civil Twilight 9:06 AM AKST 4:42 PM AKST
Nautical Twilight 8:07 AM AKST 5:42 PM AKST
Astronomical Twilight 7:13 AM AKST 6:35 PM AKST
Moon 10:58 AM AKST (12/14) 6:12 PM AKST (12/14)
Length of Visible Light 7h 35m
Length of Day
5h 32m
Waxing Crescent, 3% of the Moon is Illuminated
Dec 14
Waxing Crescent
Dec 19
First Quarter
Dec 28
Full
Jan 4
Last Quarter
Jan 11
New

Hourly Weather History & Observations

Time (AKST) Temp. Windchill Dew Point Humidity Pressure Visibility Wind Dir Wind Speed Gust Speed Precip Events Conditions
12:09 AM 26.6 °F - 23.0 °F 86% 29.31 in 10.0 mi Calm Calm - N/A   Overcast
12:53 AM 25.0 °F - 23.0 °F 92% 29.30 in 10.0 mi Calm Calm - N/A   Overcast
1:31 AM 24.8 °F 19.1 °F 21.2 °F 86% 29.29 in 10.0 mi WNW 4.6 mph - N/A   Overcast
1:53 AM 23.0 °F 18.4 °F 21.0 °F 92% 29.30 in 10.0 mi North 3.5 mph - N/A   Overcast
2:21 AM 21.2 °F 14.9 °F 19.4 °F 93% 29.29 in 10.0 mi NW 4.6 mph - N/A   Scattered Clouds
3:42 AM 19.4 °F - 17.6 °F 93% 29.29 in 10.0 mi Calm Calm - N/A   Overcast
3:53 AM 19.9 °F - 17.1 °F 89% 29.30 in 10.0 mi Calm Calm - N/A   Overcast
4:53 AM 19.9 °F 14.9 °F 17.1 °F 89% 29.29 in 10.0 mi NNW 3.5 mph - N/A   Overcast
5:53 AM 21.0 °F 16.2 °F 18.0 °F 88% 29.28 in 10.0 mi NNW 3.5 mph - N/A   Overcast
6:39 AM 21.2 °F 14.9 °F 19.4 °F 93% 29.27 in 10.0 mi North 4.6 mph - N/A   Overcast
6:53 AM 21.0 °F 14.6 °F 19.0 °F 92% 29.27 in 10.0 mi North 4.6 mph - N/A   Overcast
7:53 AM 21.0 °F 16.2 °F 19.0 °F 92% 29.26 in 10.0 mi NNE 3.5 mph - N/A   Overcast
8:53 AM 21.0 °F 14.6 °F 18.0 °F 88% 29.25 in 10.0 mi North 4.6 mph - N/A   Overcast
9:53 AM 21.9 °F - 19.0 °F 89% 29.25 in 10.0 mi Calm Calm - N/A   Overcast
10:27 AM 21.2 °F - 19.4 °F 93% 29.24 in 2.0 mi Calm Calm - N/A   Overcast
10:44 AM 21.2 °F 14.9 °F 19.4 °F 93% 29.24 in 0.5 mi NNW 4.6 mph - N/A   Overcast
10:53 AM 21.9 °F 15.7 °F 19.9 °F 92% 29.25 in 0.5 mi NNW 4.6 mph - N/A   Overcast
11:06 AM 21.2 °F 16.4 °F 19.4 °F 93% 29.24 in 0.5 mi NNW 3.5 mph - N/A   Overcast
11:53 AM 21.9 °F - 19.9 °F 92% 29.24 in 0.5 mi Calm Calm - N/A   Overcast
12:53 PM 21.9 °F 17.2 °F 19.9 °F 92% 29.24 in 0.5 mi NE 3.5 mph - N/A   Overcast
1:53 PM 21.9 °F - 19.9 °F 92% 29.22 in 0.5 mi Calm Calm - N/A   Overcast
2:03 PM 21.2 °F 16.4 °F 19.4 °F 93% 29.22 in 1.5 mi NNW 3.5 mph - N/A   Overcast
2:14 PM 21.2 °F 16.4 °F 19.4 °F 93% 29.22 in 2.0 mi NNW 3.5 mph - N/A   Overcast
2:53 PM 21.0 °F 14.6 °F 19.0 °F 92% 29.22 in 2.0 mi NW 4.6 mph - N/A   Overcast
3:15 PM 21.2 °F 16.4 °F 19.4 °F 93% 29.21 in 2.0 mi NNW 3.5 mph - N/A   Overcast
3:53 PM 21.0 °F 16.2 °F 19.0 °F 92% 29.21 in 2.0 mi NNW 3.5 mph - N/A   Overcast
4:53 PM 21.0 °F 16.2 °F 18.0 °F 88% 29.20 in 2.0 mi North 3.5 mph - N/A   Overcast
5:53 PM 19.9 °F 12.1 °F 18.0 °F 92% 29.20 in 2.0 mi NW 5.8 mph - N/A   Overcast
6:30 PM 19.4 °F 14.3 °F 17.6 °F 93% 29.19 in 10.0 mi NNW 3.5 mph - N/A   Overcast
6:53 PM 19.9 °F 13.4 °F 18.0 °F 92% 29.19 in 10.0 mi NNW 4.6 mph - N/A   Overcast
7:53 PM 19.9 °F 14.9 °F 18.0 °F 92% 29.18 in 10.0 mi NNW 3.5 mph - N/A   Overcast
8:12 PM 19.4 °F - 17.6 °F 93% 29.18 in 10.0 mi Calm Calm - N/A   Overcast
8:38 PM 19.4 °F - 17.6 °F 93% 29.17 in 10.0 mi Calm Calm - N/A   Overcast
8:53 PM 21.0 °F - 18.0 °F 88% 29.18 in 10.0 mi Calm Calm - N/A   Overcast
9:53 PM 19.9 °F 14.9 °F 17.1 °F 89% 29.16 in 10.0 mi NW 3.5 mph - N/A   Overcast
10:53 PM 19.9 °F 14.9 °F 18.0 °F 92% 29.16 in 10.0 mi NNW 3.5 mph - N/A   Overcast
11:46 PM 17.6 °F 10.7 °F 15.8 °F 93% 29.16 in 3.0 mi NW 4.6 mph - N/A   Overcast
11:53 PM 17.1 °F 8.7 °F 15.1 °F 92% 29.16 in 1.5 mi WNW 5.8 mph - N/A   Overcast